| time (UTC) | temp F | wind direction | speed knots | gust knots | rain 1hr in | rain 24hr in | rain mn in | humidity % | barometer mb |
| 20260503215336 | 69 | 98 | 2.6 | 3.5 | 0.00 | 0.00 | 0.00 | 59 | 1019.7 |
| 20260503214833 | 68 | 172 | 0.0 | 6.1 | 0.00 | 0.00 | 0.00 | 59 | 1019.8 |
| 20260503214330 | 69 | 12 | 0.9 | 5.2 | 0.00 | 0.00 | 0.00 | 58 | 1019.7 |
| 20260503213827 | 69 | 135 | 1.7 | 7.0 | 0.00 | 0.00 | 0.00 | 57 | 1019.6 |
| 20260503213325 | 68 | 186 | 2.6 | 4.3 | 0.00 | 0.00 | 0.00 | 58 | 1019.8 |
| 20260503212822 | 69 | 86 | 2.6 | 3.5 | 0.00 | 0.00 | 0.00 | 58 | 1019.7 |
| 20260503212320 | 67 | 14 | 0.9 | 7.0 | 0.00 | 0.00 | 0.00 | 60 | 1019.9 |
| 20260503211817 | 69 | 74 | 0.0 | 5.2 | 0.00 | 0.00 | 0.00 | 59 | 1019.8 |
| 20260503211314 | 68 | 7 | 0.9 | 5.2 | 0.00 | 0.00 | 0.00 | 59 | 1020.1 |
| 20260503210813 | 69 | 33 | 2.6 | 7.0 | 0.00 | 0.00 | 0.00 | 57 | 1019.8 |
| 20260503210311 | 68 | 90 | 1.7 | 7.8 | 0.00 | 0.00 | 0.00 | 58 | 1020.0 |
| 20260503205806 | 69 | 342 | 0.9 | 4.3 | 0.00 | 0.00 | 0.00 | 56 | 1020.1 |
| 20260503205304 | 69 | 180 | 0.9 | 4.3 | 0.00 | 0.00 | 0.00 | 57 | 1020.3 |
| 20260503204759 | 67 | 203 | 2.6 | 5.2 | 0.00 | 0.00 | 0.00 | 58 | 1020.0 |
| 20260503204257 | 69 | 173 | 0.9 | 4.3 | 0.00 | 0.00 | 0.00 | 55 | 1020.1 |
| 20260503203754 | 69 | 105 | 2.6 | 7.0 | 0.00 | 0.00 | 0.00 | 56 | 1020.3 |
| 20260503203251 | 69 | 79 | 2.6 | 5.2 | 0.00 | 0.00 | 0.00 | 57 | 1020.4 |
| 20260503202748 | 70 | 340 | 0.9 | 4.3 | 0.00 | 0.00 | 0.00 | 55 | 1020.2 |
| 20260503202246 | 69 | 106 | 0.0 | 7.8 | 0.00 | 0.00 | 0.00 | 57 | 1020.3 |
| 20260503201744 | 70 | 350 | 1.7 | 3.5 | 0.00 | 0.00 | 0.00 | 56 | 1020.3 |
| 20260503201241 | 69 | 83 | 2.6 | 6.1 | 0.00 | 0.00 | 0.00 | 55 | 1020.3 |
| 20260503200738 | 70 | 241 | 3.5 | 6.1 | 0.00 | 0.00 | 0.00 | 54 | 1020.3 |
| 20260503200234 | 69 | 96 | 1.7 | 5.2 | 0.00 | 0.00 | 0.00 | 56 | 1020.4 |
| 20260503195731 | 69 | 129 | 4.3 | 5.2 | 0.00 | 0.00 | 0.00 | 56 | 1020.3 |
| 20260503195228 | 68 | 117 | 1.7 | 2.6 | 0.00 | 0.00 | 0.00 | 58 | 1020.5 |
| 20260503194726 | 69 | 184 | 1.7 | 6.1 | 0.00 | 0.00 | 0.00 | 54 | 1020.5 |
| 20260503194221 | 68 | 138 | 2.6 | 5.2 | 0.00 | 0.00 | 0.00 | 57 | 1020.7 |
| 20260503193717 | 71 | 90 | 0.9 | 6.1 | 0.00 | 0.00 | 0.00 | 55 | 1020.9 |
| 20260503193214 | 69 | 65 | 1.7 | 6.1 | 0.00 | 0.00 | 0.00 | 56 | 1020.9 |
| 20260503192709 | 68 | 90 | 1.7 | 7.0 | 0.00 | 0.00 | 0.00 | 57 | 1020.9 |
| 20260503192205 | 69 | 191 | 0.0 | 5.2 | 0.00 | 0.00 | 0.00 | 57 | 1021.2 |
| 20260503191702 | 71 | 256 | 2.6 | 4.3 | 0.00 | 0.00 | 0.00 | 55 | 1021.2 |
| 20260503191159 | 70 | 270 | 0.0 | 5.2 | 0.00 | 0.00 | 0.00 | 55 | 1021.2 |
| 20260503190655 | 71 | 283 | 0.0 | 5.2 | 0.00 | 0.00 | 0.00 | 54 | 1021.2 |
| 20260503190152 | 70 | 134 | 5.2 | 7.8 | 0.00 | 0.00 | 0.00 | 54 | 1021.3 |
| 20260503185649 | 70 | 214 | 0.0 | 4.3 | 0.00 | 0.00 | 0.00 | 52 | 1021.3 |
| 20260503185144 | 70 | 285 | 0.9 | 1.7 | 0.00 | 0.00 | 0.00 | 50 | 1021.4 |
| 20260503184639 | 71 | 297 | 0.9 | 1.7 | 0.00 | 0.00 | 0.00 | 48 | 1021.6 |
| 20260503184136 | 73 | 308 | 1.7 | 2.6 | 0.00 | 0.00 | 0.00 | 49 | 1021.4 |
| 20260503183632 | 72 | 286 | 0.0 | 1.7 | 0.00 | 0.00 | 0.00 | 49 | 1021.6 |
| 20260503183130 | 71 | 291 | 0.0 | 2.6 | 0.00 | 0.00 | 0.00 | 50 | 1021.7 |
| 20260503182628 | 70 | 214 | 2.6 | 4.3 | 0.00 | 0.00 | 0.00 | 48 | 1021.5 |
| 20260503182126 | 71 | 254 | 0.0 | 3.5 | 0.00 | 0.00 | 0.00 | 47 | 1021.8 |
| 20260503181623 | 72 | 336 | 0.0 | 3.5 | 0.00 | 0.00 | 0.00 | 49 | 1021.7 |
| 20260503181120 | 69 | 195 | 0.0 | 1.7 | 0.00 | 0.00 | 0.00 | 48 | 1021.7 |
| 20260503180617 | 70 | 312 | 1.7 | 2.6 | 0.00 | 0.00 | 0.00 | 55 | 1021.6 |
| 20260503180115 | 70 | 280 | 1.7 | 4.3 | 0.00 | 0.00 | 0.00 | 51 | 1021.8 |
| 20260503175611 | 72 | 8 | 0.0 | 2.6 | 0.00 | 0.00 | 0.00 | 50 | 1021.8 |
| 20260503175108 | 69 | 180 | 1.7 | 2.6 | 0.00 | 0.00 | 0.00 | 48 | 1022.0 |
| 20260503174605 | 73 | 172 | 0.0 | 1.7 | 0.00 | 0.00 | 0.00 | 48 | 1021.9 |
| 20260503174102 | 71 | 270 | 0.9 | 3.5 | 0.00 | 0.00 | 0.00 | 52 | 1021.9 |
| 20260503173557 | 70 | 114 | 0.9 | 2.6 | 0.00 | 0.00 | 0.00 | 50 | 1021.8 |
| 20260503173054 | 70 | 15 | 0.0 | 2.6 | 0.00 | 0.00 | 0.00 | 46 | 1021.7 |
| 20260503172551 | 70 | 283 | 0.0 | 1.7 | 0.00 | 0.00 | 0.00 | 52 | 1022.1 |
| 20260503172048 | 71 | 287 | 1.7 | 3.5 | 0.00 | 0.00 | 0.00 | 50 | 1022.1 |
| 20260503171544 | 70 | 270 | 0.0 | 3.5 | 0.00 | 0.00 | 0.00 | 52 | 1022.3 |
| 20260503171042 | 71 | 263 | 2.6 | 2.6 | 0.00 | 0.00 | 0.00 | 50 | 1022.2 |
| 20260503170538 | 70 | 235 | 0.0 | 4.3 | 0.00 | 0.00 | 0.00 | 50 | 1022.3 |
| 20260503150931 | 66 | 161 | 3.5 | 4.3 | 0.00 | 0.00 | 0.00 | 55 | 1022.8 |
| 20260503150427 | 67 | 250 | 2.6 | 3.5 | 0.00 | 0.00 | 0.00 | 56 | 1022.8 |
| 20260503131320 | 59 | 0 | 1.7 | 4.3 | 0.02 | 0.00 | 0.00 | 91 | 1022.2 |
| 20260503130818 | 58 | 294 | 1.7 | 4.3 | 0.00 | 0.00 | 0.00 | 95 | 1022.1 |
| 20260503130315 | 58 | 307 | 1.7 | 2.6 | 0.00 | 0.00 | 0.00 | 98 | 1022.2 |
| 20260503110708 | 49 | 99 | 0.0 | 0.0 | 0.00 | 0.00 | 0.00 | 99 | 1021.0 |
| 20260503110206 | 49 | 99 | 0.0 | 0.0 | 0.00 | 0.00 | 0.00 | 99 | 1021.1 |
| 20260503100132 | 48 | 352 | 0.0 | 0.0 | 0.00 | 0.00 | 0.00 | 99 | 1020.0 |
| 20260503081522 | 50 | 291 | 0.0 | 0.9 | 0.00 | 0.00 | 0.00 | 99 | 1019.4 |
| 20260503081019 | 50 | 279 | 0.0 | 0.9 | 0.00 | 0.00 | 0.00 | 99 | 1019.1 |
| 20260503080515 | 50 | 286 | 0.0 | 0.0 | 0.00 | 0.00 | 0.00 | 99 | 1019.3 |
| 20260503072449 | 51 | 276 | 0.0 | 0.9 | 0.00 | 0.00 | 0.00 | 99 | 1018.8 |
| 20260503071945 | 51 | 279 | 0.0 | 0.9 | 0.00 | 0.00 | 0.00 | 99 | 1018.8 |
| 20260503071442 | 51 | 286 | 0.0 | 0.9 | 0.00 | 0.00 | 0.00 | 99 | 1018.7 |
| 20260503070938 | 51 | 270 | 0.0 | 1.7 | 0.00 | 0.00 | 0.00 | 99 | 1018.7 |
| 20260503070436 | 51 | 278 | 0.0 | 1.7 | 0.00 | 0.00 | 0.00 | 99 | 1018.8 |
| 20260503054849 | 52 | 356 | 0.0 | 1.7 | 0.00 | 0.00 | 0.00 | 99 | 1018.7 |
| 20260503054345 | 52 | 283 | 0.0 | 1.7 | 0.00 | 0.00 | 0.00 | 99 | 1018.5 |
| 20260503053843 | 52 | 285 | 0.0 | 0.9 | 0.00 | 0.00 | 0.00 | 99 | 1018.6 |
| 20260503053341 | 52 | 279 | 0.0 | 0.9 | 0.00 | 0.00 | 0.00 | 99 | 1018.5 |
| 20260503052837 | 52 | 337 | 0.0 | 1.7 | 0.00 | 0.00 | 0.00 | 99 | 1018.5 |
| 20260503052334 | 53 | 330 | 1.7 | 2.6 | 0.00 | 0.00 | 0.00 | 99 | 1018.7 |
| 20260503051830 | 53 | 289 | 0.9 | 2.6 | 0.00 | 0.00 | 0.00 | 99 | 1018.4 |
| 20260503051327 | 53 | 348 | 1.7 | 1.7 | 0.00 | 0.00 | 0.00 | 99 | 1018.6 |
| 20260503050824 | 53 | 313 | 2.6 | 2.6 | 0.00 | 0.00 | 0.00 | 99 | 1018.3 |
| 20260503050320 | 53 | 312 | 0.0 | 1.7 | 0.00 | 0.00 | 0.00 | 99 | 1018.1 |
| 20260503045818 | 53 | 331 | 0.9 | 2.6 | 0.00 | 0.00 | 0.00 | 99 | 1018.1 |
| 20260503045315 | 53 | 279 | 0.0 | 1.7 | 0.00 | 0.00 | 0.00 | 99 | 1018.3 |
| 20260503044811 | 53 | 265 | 0.0 | 2.6 | 0.00 | 0.00 | 0.00 | 99 | 1018.4 |
| 20260503044309 | 53 | 311 | 0.0 | 2.6 | 0.00 | 0.00 | 0.00 | 99 | 1018.2 |
| 20260503043806 | 53 | 315 | 1.7 | 2.6 | 0.00 | 0.00 | 0.00 | 99 | 1018.3 |
| 20260503043303 | 53 | 324 | 0.0 | 2.6 | 0.00 | 0.00 | 0.00 | 99 | 1017.8 |
| 20260503042759 | 54 | 356 | 0.0 | 1.7 | 0.00 | 0.00 | 0.00 | 99 | 1018.0 |
| 20260503042256 | 54 | 282 | 0.9 | 0.9 | 0.00 | 0.00 | 0.00 | 99 | 1017.9 |
| 20260503041751 | 54 | 270 | 0.0 | 1.7 | 0.00 | 0.00 | 0.00 | 99 | 1018.1 |
| 20260503041249 | 54 | 279 | 1.7 | 2.6 | 0.00 | 0.00 | 0.00 | 99 | 1018.0 |
| 20260503040747 | 54 | 270 | 0.9 | 2.6 | 0.00 | 0.00 | 0.00 | 99 | 1017.7 |
| 20260503040244 | 54 | 306 | 0.9 | 2.6 | 0.00 | 0.00 | 0.00 | 99 | 1017.9 |
| 20260503035741 | 54 | 3 | 3.5 | 3.5 | 0.00 | 0.98 | 0.98 | 99 | 1017.6 |
| 20260503035238 | 54 | 348 | 3.5 | 3.5 | 0.00 | 0.98 | 0.98 | 99 | 1017.8 |
| 20260503034735 | 54 | 356 | 0.0 | 1.7 | 0.00 | 0.98 | 0.98 | 99 | 1017.3 |
| 20260503034232 | 55 | 301 | 1.7 | 2.6 | 0.00 | 0.98 | 0.98 | 99 | 1017.5 |
| 20260503033730 | 55 | 255 | 0.9 | 1.7 | 0.00 | 0.98 | 0.98 | 99 | 1017.5 |
| 20260503033227 | 55 | 275 | 1.7 | 1.7 | 0.00 | 0.98 | 0.98 | 99 | 1017.4 |
| 20260503032725 | 55 | 270 | 0.9 | 1.7 | 0.00 | 0.98 | 0.98 | 99 | 1017.5 |
| 20260503032224 | 55 | 270 | 0.9 | 1.7 | 0.00 | 0.98 | 0.98 | 99 | 1017.3 |
| 20260503031720 | 55 | 306 | 0.0 | 0.9 | 0.00 | 0.98 | 0.98 | 99 | 1017.2 |
| 20260503031218 | 56 | 311 | 0.0 | 1.7 | 0.00 | 0.98 | 0.98 | 99 | 1017.1 |
| 20260503030714 | 56 | 7 | 0.0 | 1.7 | 0.00 | 0.98 | 0.98 | 99 | 1017.1 |
| 20260503030211 | 56 | 270 | 0.0 | 0.9 | 0.00 | 0.98 | 0.98 | 99 | 1017.0 |
| 20260503025708 | 56 | 356 | 0.0 | 1.7 | 0.00 | 0.98 | 0.98 | 99 | 1017.0 |
| 20260503025206 | 56 | 279 | 0.0 | 0.0 | 0.00 | 0.98 | 0.98 | 99 | 1017.0 |
| 20260503024702 | 56 | 342 | 0.9 | 1.7 | 0.00 | 0.98 | 0.98 | 99 | 1016.8 |
| 20260503024159 | 56 | 0 | 0.9 | 1.7 | 0.00 | 0.98 | 0.98 | 99 | 1016.7 |
| 20260503023656 | 56 | 303 | 1.7 | 1.7 | 0.00 | 0.98 | 0.98 | 99 | 1016.7 |
| 20260503023152 | 56 | 281 | 1.7 | 1.7 | 0.00 | 0.98 | 0.98 | 99 | 1016.5 |
| 20260503022649 | 56 | 265 | 1.7 | 1.7 | 0.00 | 0.98 | 0.98 | 99 | 1016.4 |
| 20260503022148 | 55 | 302 | 2.6 | 2.6 | 0.00 | 0.98 | 0.98 | 99 | 1016.4 |
| 20260503021645 | 55 | 270 | 0.9 | 1.7 | 0.00 | 0.98 | 0.98 | 99 | 1016.4 |
| 20260503021142 | 55 | 286 | 0.0 | 0.9 | 0.00 | 0.98 | 0.98 | 99 | 1016.2 |
| 20260503020639 | 55 | 300 | 0.0 | 1.7 | 0.00 | 0.98 | 0.98 | 99 | 1016.1 |
| 20260503020137 | 55 | 307 | 1.7 | 1.7 | 0.00 | 0.98 | 0.98 | 99 | 1016.1 |
| 20260503015633 | 55 | 300 | 0.0 | 2.6 | 0.00 | 0.98 | 0.98 | 99 | 1016.1 |
| 20260503015130 | 55 | 297 | 0.9 | 1.7 | 0.00 | 0.98 | 0.98 | 99 | 1015.9 |
| 20260503014626 | 55 | 356 | 1.7 | 1.7 | 0.00 | 0.98 | 0.98 | 99 | 1015.7 |
| 20260503014124 | 55 | 0 | 1.7 | 4.3 | 0.00 | 0.98 | 0.98 | 99 | 1015.6 |
| 20260503013621 | 55 | 350 | 2.6 | 2.6 | 0.00 | 0.98 | 0.98 | 99 | 1015.7 |
| 20260503013119 | 55 | 286 | 0.0 | 3.5 | 0.00 | 0.98 | 0.98 | 99 | 1015.6 |
| 20260503012616 | 55 | 285 | 0.9 | 1.7 | 0.00 | 0.98 | 0.98 | 99 | 1015.8 |
| 20260503012113 | 55 | 277 | 0.0 | 2.6 | 0.00 | 0.98 | 0.98 | 99 | 1015.7 |
| 20260503011609 | 55 | 255 | 0.0 | 1.7 | 0.00 | 0.98 | 0.98 | 99 | 1015.8 |
| 20260503011107 | 55 | 326 | 1.7 | 2.6 | 0.00 | 0.98 | 0.98 | 99 | 1015.7 |
| 20260503010603 | 55 | 341 | 1.7 | 4.3 | 0.00 | 0.98 | 0.98 | 99 | 1015.8 |
| 20260503010100 | 55 | 337 | 0.9 | 1.7 | 0.00 | 0.98 | 0.98 | 99 | 1015.7 |
| 20260503005557 | 55 | 354 | 0.9 | 2.6 | 0.00 | 0.98 | 0.98 | 99 | 1015.7 |
| 20260503005054 | 55 | 270 | 0.0 | 2.6 | 0.00 | 0.98 | 0.98 | 99 | 1015.5 |
| 20260503004550 | 55 | 334 | 1.7 | 3.5 | 0.00 | 0.98 | 0.98 | 99 | 1015.4 |
| 20260503004049 | 55 | 337 | 0.9 | 2.6 | 0.00 | 0.98 | 0.98 | 99 | 1015.4 |
| 20260503003545 | 55 | 339 | 1.7 | 1.7 | 0.00 | 0.98 | 0.98 | 99 | 1015.2 |
| 20260503003042 | 55 | 270 | 0.0 | 1.7 | 0.00 | 0.98 | 0.98 | 99 | 1015.1 |
| 20260503002539 | 55 | 270 | 0.0 | 2.6 | 0.00 | 0.98 | 0.98 | 99 | 1015.0 |
| 20260503002036 | 55 | 332 | 1.7 | 2.6 | 0.00 | 0.98 | 0.98 | 99 | 1014.6 |
| 20260503001532 | 55 | 347 | 3.5 | 4.3 | 0.00 | 0.98 | 0.98 | 99 | 1014.7 |
| 20260503001030 | 55 | 346 | 0.0 | 4.3 | 0.00 | 0.98 | 0.98 | 99 | 1014.8 |
| 20260503000527 | 55 | 352 | 1.7 | 2.6 | 0.00 | 0.98 | 0.98 | 99 | 1014.8 |
| 20260503000024 | 55 | 334 | 0.0 | 2.6 | 0.00 | 0.98 | 0.98 | 99 | 1015.0 |
| 20260502235520 | 56 | 283 | 0.9 | 2.6 | 0.00 | 0.98 | 0.98 | 99 | 1014.8 |
| 20260502235019 | 55 | 270 | 0.0 | 1.7 | 0.00 | 0.98 | 0.98 | 99 | 1014.8 |
| 20260502234514 | 55 | 307 | 0.0 | 2.6 | 0.00 | 0.98 | 0.98 | 99 | 1014.7 |
| 20260502234012 | 55 | 7 | 2.6 | 2.6 | 0.00 | 0.98 | 0.98 | 99 | 1014.4 |
| 20260502233513 | 56 | 263 | 0.0 | 3.5 | 0.00 | 0.98 | 0.98 | 99 | 1014.5 |
| 20260502233010 | 56 | 350 | 0.0 | 2.6 | 0.00 | 0.98 | 0.98 | 99 | 1014.3 |
| 20260502232506 | 56 | 311 | 1.7 | 4.3 | 0.00 | 0.98 | 0.98 | 99 | 1014.6 |
| 20260502232003 | 56 | 306 | 0.0 | 2.6 | 0.00 | 0.98 | 0.98 | 99 | 1014.3 |
| 20260502231500 | 56 | 282 | 0.9 | 3.5 | 0.00 | 0.98 | 0.98 | 99 | 1014.0 |
| 20260502230958 | 56 | 334 | 2.6 | 2.6 | 0.00 | 0.98 | 0.98 | 99 | 1013.9 |
| 20260502230456 | 56 | 287 | 1.7 | 5.2 | 0.00 | 0.98 | 0.98 | 99 | 1014.0 |
| 20260502225954 | 56 | 346 | 0.0 | 4.3 | 0.00 | 0.98 | 0.98 | 99 | 1014.1 |
| 20260502225449 | 56 | 297 | 0.0 | 2.6 | 0.00 | 0.98 | 0.98 | 99 | 1013.9 |
| 20260502224946 | 56 | 323 | 1.7 | 4.3 | 0.00 | 0.98 | 0.98 | 99 | 1014.0 |
| 20260502224442 | 56 | 293 | 0.0 | 4.3 | 0.00 | 0.98 | 0.98 | 99 | 1014.1 |
| 20260502223940 | 56 | 343 | 4.3 | 4.3 | 0.00 | 0.98 | 0.98 | 99 | 1014.3 |
| 20260502223438 | 57 | 255 | 0.9 | 2.6 | 0.00 | 0.98 | 0.98 | 99 | 1014.1 |
| 20260502222936 | 56 | 339 | 1.7 | 3.5 | 0.00 | 0.98 | 0.98 | 99 | 1014.1 |
| 20260502222433 | 56 | 315 | 1.7 | 3.5 | 0.02 | 0.98 | 0.98 | 99 | 1014.2 |
| 20260502221928 | 57 | 324 | 0.0 | 2.6 | 0.02 | 0.98 | 0.98 | 99 | 1013.9 |
| 20260502221425 | 56 | 341 | 3.5 | 4.3 | 0.00 | 0.97 | 0.97 | 99 | 1014.0 |
| 20260502220922 | 57 | 283 | 0.0 | 2.6 | 0.00 | 0.97 | 0.97 | 99 | 1013.9 |
| 20260502220418 | 57 | 283 | 1.7 | 2.6 | 0.00 | 0.97 | 0.97 | 99 | 1013.8 |
| 20260502215914 | 57 | 299 | 0.0 | 3.5 | 0.00 | 0.97 | 0.97 | 99 | 1013.8 |
| 20260502215412 | 57 | 270 | 1.7 | 3.5 | 0.00 | 0.97 | 0.97 | 99 | 1013.7 |